Time,TemperatureF,DewpointF,PressureIn,WindDirection,WindDirectionDegrees,WindSpeedMPH,WindSpeedGustMPH,Humidity,HourlyPrecipIn,Conditions,Clouds,dailyrainin,SoftwareType,DateUTC
2013-02-25 00:00:00,22.0,20.0,-100.00,SW,231,13.0,23.0,91,-99.99,,,-99.99,,2013-02-25 08:00:00,
2013-02-25 01:00:00,23.0,21.0,-100.00,WSW,256,15.0,30.0,91,-99.99,,,-99.99,,2013-02-25 09:00:00,
2013-02-25 02:00:00,23.0,21.0,-100.00,SSW,203,15.0,29.0,91,-99.99,,,-99.99,,2013-02-25 10:00:00,
2013-02-25 03:00:00,22.0,20.0,-100.00,West,265,15.0,27.0,91,-99.99,,,-99.99,,2013-02-25 11:00:00,
2013-02-25 04:00:00,20.0,18.0,-100.00,West,279,21.0,48.0,90,-99.99,,,-99.99,,2013-02-25 12:00:00,
2013-02-25 05:00:00,18.0,15.0,-100.00,West,263,21.0,37.0,89,-99.99,,,-99.99,,2013-02-25 13:00:00,
2013-02-25 06:00:00,17.0,14.0,-100.00,SW,232,20.0,41.0,89,-99.99,,,-99.99,,2013-02-25 14:00:00,
2013-02-25 07:00:00,17.0,14.0,-100.00,WSW,258,18.0,31.0,89,-99.99,,,-99.99,,2013-02-25 15:00:00,
2013-02-25 08:00:00,17.0,14.0,-100.00,SSW,212,17.0,36.0,89,-99.99,,,-99.99,,2013-02-25 16:00:00,
2013-02-25 09:00:00,17.0,14.0,-100.00,WSW,251,15.0,30.0,89,-99.99,,,-99.99,,2013-02-25 17:00:00,
2013-02-25 10:00:00,17.0,14.0,-100.00,West,260,14.0,29.0,89,-99.99,,,-99.99,,2013-02-25 18:00:00,
2013-02-25 11:00:00,16.0,13.0,-100.00,West,261,15.0,27.0,89,-99.99,,,-99.99,,2013-02-25 19:00:00,
2013-02-25 12:00:00,17.0,14.0,-100.00,SSW,202,17.0,30.0,88,-99.99,,,-99.99,,2013-02-25 20:00:00,
2013-02-25 13:00:00,16.0,13.0,-100.00,WSW,250,17.0,28.0,89,-99.99,,,-99.99,,2013-02-25 21:00:00,
2013-02-25 14:00:00,17.0,14.0,-100.00,SW,223,16.0,27.0,89,-99.99,,,-99.99,,2013-02-25 22:00:00,
2013-02-25 14:52:00,17.0,14.0,-100.00,SW,223,16.0,27.0,89,-99.99,,,-99.99,,2013-02-25 22:52:00,
2013-02-25 15:00:00,16.0,13.0,-100.00,West,261,12.0,25.0,89,-99.99,,,-99.99,,2013-02-25 23:00:00,
2013-02-25 16:00:00,16.0,13.0,-100.00,West,261,14.0,33.0,89,-99.99,,,-99.99,,2013-02-26 00:00:00,
2013-02-25 17:00:00,16.0,13.0,-100.00,West,259,17.0,32.0,89,-99.99,,,-99.99,,2013-02-26 01:00:00,
2013-02-25 18:00:00,15.0,12.0,-100.00,WSW,256,20.0,32.0,89,-99.99,,,-99.99,,2013-02-26 02:00:00,
2013-02-25 19:00:00,14.0,11.0,-100.00,WSW,257,18.0,27.0,88,-99.99,,,-99.99,,2013-02-26 03:00:00,
2013-02-25 20:00:00,15.0,12.0,-100.00,WSW,243,23.0,41.0,88,-99.99,,,-99.99,,2013-02-26 04:00:00,
2013-02-25 21:00:00,14.0,11.0,-100.00,West,262,20.0,33.0,88,-99.99,,,-99.99,,2013-02-26 05:00:00,
2013-02-25 22:00:00,13.0,10.0,-100.00,West,277,17.0,27.0,88,-99.99,,,-99.99,,2013-02-26 06:00:00,
2013-02-25 23:00:00,13.0,9.0,-100.00,West,270,24.0,40.0,84,-99.99,,,-99.99,,2013-02-26 07:00:00,
2013-02-25 23:52:00,13.0,9.0,-100.00,West,270,24.0,40.0,84,-99.99,,,-99.99,,2013-02-26 07:52:00,